Time,TemperatureF,DewpointF,PressureIn,WindDirection,WindDirectionDegrees,WindSpeedMPH,WindSpeedGustMPH,Humidity,HourlyPrecipIn,Conditions,Clouds,dailyrainin,SoftwareType,DateUTC
2013-01-16 00:03:00,35.1,34.3,29.71,North,351,4.5,5.4,97,0.00,,---,0.00,VWS V14.01,2013-01-15 23:03:00,
2013-01-16 00:08:00,35.1,34.3,29.68,NNW,342,4.5,5.8,97,0.00,,---,0.00,VWS V14.01,2013-01-15 23:08:00,
2013-01-16 00:13:00,35.1,34.3,29.68,NNW,342,6.7,6.7,97,0.00,,---,0.00,VWS V14.01,2013-01-15 23:13:00,
2013-01-16 00:18:00,35.1,34.3,29.68,NNW,336,4.5,4.5,97,0.00,,---,0.00,VWS V14.01,2013-01-15 23:18:00,
2013-01-16 00:23:00,35.2,34.5,29.68,NW,323,2.7,6.3,97,0.00,,---,0.00,VWS V14.01,2013-01-15 23:23:00,
2013-01-16 00:28:00,35.1,34.3,29.68,NNW,341,6.9,6.9,97,0.00,,---,0.00,VWS V14.01,2013-01-15 23:28:00,
2013-01-16 00:33:00,35.1,34.3,29.68,NNW,341,4.0,4.5,97,0.00,,---,0.00,VWS V14.01,2013-01-15 23:33:00,
2013-01-16 00:38:00,35.1,34.3,29.68,NNW,341,0.0,4.0,97,0.00,,---,0.00,VWS V14.01,2013-01-15 23:38:00,
2013-01-16 00:43:00,35.1,34.3,29.68,NNW,339,0.0,2.7,97,0.00,,---,0.00,VWS V14.01,2013-01-15 23:43:00,
2013-01-16 00:48:00,34.9,34.1,29.68,NNW,334,3.6,4.0,97,0.00,,---,0.00,VWS V14.01,2013-01-15 23:48:00,
2013-01-16 00:53:00,35.1,34.3,29.68,West,276,3.6,4.9,97,0.00,,---,0.00,VWS V14.01,2013-01-15 23:53:00,
2013-01-16 00:58:00,35.1,34.3,29.68,WNW,286,0.0,4.0,97,0.00,,---,0.00,VWS V14.01,2013-01-15 23:58:00,
2013-01-16 01:03:00,34.9,34.1,29.68,NNW,336,3.1,3.6,97,0.00,,---,0.00,VWS V14.01,2013-01-16 00:03:00,
2013-01-16 01:08:00,34.9,34.1,29.68,NNW,336,3.1,3.1,97,0.00,,---,0.00,VWS V14.01,2013-01-16 00:08:00,
2013-01-16 01:13:00,35.1,34.3,29.68,NNW,336,0.0,0.0,97,0.00,,---,0.00,VWS V14.01,2013-01-16 00:13:00,
2013-01-16 01:18:00,35.1,34.3,29.68,NNW,336,0.0,0.0,97,0.00,,---,0.00,VWS V14.01,2013-01-16 00:18:00,
2013-01-16 01:23:00,35.1,34.3,29.68,NNW,336,0.0,3.1,97,0.00,,---,0.00,VWS V14.01,2013-01-16 00:23:00,
2013-01-16 01:28:00,34.9,34.1,29.68,NNW,336,0.0,0.0,97,0.00,,---,0.00,VWS V14.01,2013-01-16 00:28:00,
2013-01-16 01:33:00,35.1,34.3,29.68,NNW,336,0.0,2.7,97,0.00,,---,0.00,VWS V14.01,2013-01-16 00:33:00,
2013-01-16 01:38:00,35.1,34.3,29.68,NNW,336,0.0,0.0,97,0.00,,---,0.00,VWS V14.01,2013-01-16 00:38:00,
2013-01-16 01:43:00,35.1,34.3,29.68,NNW,336,3.1,3.6,97,0.00,,---,0.00,VWS V14.01,2013-01-16 00:43:00,
2013-01-16 01:48:00,35.2,34.5,29.68,NNW,336,2.7,3.1,97,0.00,,---,0.00,VWS V14.01,2013-01-16 00:48:00,
2013-01-16 01:53:00,35.1,34.3,29.68,NNW,336,2.7,2.7,97,0.00,,---,0.00,VWS V14.01,2013-01-16 00:53:00,
2013-01-16 01:58:00,35.1,34.3,29.68,NNW,336,0.0,0.0,97,0.00,,---,0.00,VWS V14.01,2013-01-16 00:58:00,
2013-01-16 02:03:00,34.9,34.1,29.68,NNW,336,2.7,3.1,97,0.00,,---,0.00,VWS V14.01,2013-01-16 01:03:00,
2013-01-16 02:08:00,34.9,34.1,29.68,NNW,336,2.7,2.7,97,0.00,,---,0.00,VWS V14.01,2013-01-16 01:08:00,
2013-01-16 02:13:00,34.9,34.1,29.68,NNW,333,0.0,2.7,97,0.00,,---,0.00,VWS V14.01,2013-01-16 01:13:00,
2013-01-16 02:18:00,34.9,34.1,29.68,NNW,339,3.1,3.6,97,0.00,,---,0.00,VWS V14.01,2013-01-16 01:18:00,
2013-01-16 02:23:00,34.9,34.1,29.65,NNW,338,3.1,4.5,97,0.00,,---,0.00,VWS V14.01,2013-01-16 01:23:00,
2013-01-16 02:28:00,34.9,34.1,29.65,NNW,334,3.1,3.1,97,0.00,,---,0.00,VWS V14.01,2013-01-16 01:28:00,
2013-01-16 02:33:00,34.7,33.9,29.65,NNW,338,4.5,4.5,97,0.00,,---,0.00,VWS V14.01,2013-01-16 01:33:00,
2013-01-16 02:38:00,34.7,33.9,29.65,NNW,339,4.9,4.9,97,0.00,,---,0.00,VWS V14.01,2013-01-16 01:38:00,
2013-01-16 02:43:00,34.7,33.9,29.65,NNW,344,4.0,4.0,97,0.00,,---,0.00,VWS V14.01,2013-01-16 01:43:00,
2013-01-16 02:48:00,34.7,33.9,29.65,NNW,332,4.9,5.4,97,0.00,,---,0.00,VWS V14.01,2013-01-16 01:48:00,
2013-01-16 02:53:00,34.9,34.1,29.65,NNW,333,4.5,4.9,97,0.00,,---,0.00,VWS V14.01,2013-01-16 01:53:00,
2013-01-16 02:58:00,34.9,34.1,29.65,NNW,334,4.9,5.4,97,0.00,,---,0.00,VWS V14.01,2013-01-16 01:58:00,
2013-01-16 03:03:00,34.9,34.1,29.65,North,351,4.5,5.4,97,0.00,,---,0.00,VWS V14.01,2013-01-16 02:03:00,
2013-01-16 03:08:00,34.9,34.1,29.65,North,356,3.6,4.9,97,0.00,,---,0.00,VWS V14.01,2013-01-16 02:08:00,
2013-01-16 03:13:00,35.1,34.3,29.65,North,351,4.9,6.3,97,0.00,,---,0.00,VWS V14.01,2013-01-16 02:13:00,
2013-01-16 03:18:00,35.1,34.3,29.65,North,351,4.0,5.8,97,0.00,,---,0.00,VWS V14.01,2013-01-16 02:18:00,
2013-01-16 03:23:00,35.1,34.3,29.62,NNW,342,6.3,6.3,97,0.00,,---,0.00,VWS V14.01,2013-01-16 02:23:00,
2013-01-16 03:28:00,35.2,34.5,29.62,NNW,339,3.1,4.0,97,0.00,,---,0.00,VWS V14.01,2013-01-16 02:28:00,
2013-01-16 03:33:00,35.2,34.5,29.62,North,351,0.0,3.1,97,0.00,,---,0.00,VWS V14.01,2013-01-16 02:33:00,
2013-01-16 03:38:00,35.2,34.5,29.62,North,351,4.5,6.7,97,0.00,,---,0.00,VWS V14.01,2013-01-16 02:38:00,
2013-01-16 03:43:00,35.1,34.3,29.62,NNW,343,6.7,6.7,97,0.00,,---,0.00,VWS V14.01,2013-01-16 02:43:00,
2013-01-16 03:48:00,35.1,34.3,29.62,North,356,4.5,4.9,97,0.00,,---,0.00,VWS V14.01,2013-01-16 02:48:00,
2013-01-16 03:53:00,35.1,34.3,29.62,NNW,341,4.9,5.4,97,0.00,,---,0.00,VWS V14.01,2013-01-16 02:53:00,
2013-01-16 03:58:00,35.1,34.3,29.62,NW,322,4.9,4.9,97,0.00,,---,0.00,VWS V14.01,2013-01-16 02:58:00,
2013-01-16 04:03:00,35.1,34.3,29.62,NW,325,0.0,0.0,97,0.00,,---,0.00,VWS V14.01,2013-01-16 03:03:00,
2013-01-16 04:08:00,35.1,34.3,29.62,NNE,15,4.9,6.7,97,0.00,,---,0.00,VWS V14.01,2013-01-16 03:08:00,
2013-01-16 04:13:00,35.1,34.3,29.62,NNW,338,4.5,4.9,97,0.00,,---,0.00,VWS V14.01,2013-01-16 03:13:00,
2013-01-16 04:18:00,34.9,34.1,29.62,NNW,347,4.0,4.0,97,0.00,,---,0.00,VWS V14.01,2013-01-16 03:18:00,
2013-01-16 04:23:00,34.9,34.1,29.62,NW,320,0.0,4.5,97,0.00,,---,0.00,VWS V14.01,2013-01-16 03:23:00,
2013-01-16 04:28:00,34.9,34.1,29.62,North,351,4.0,5.4,97,0.00,,---,0.00,VWS V14.01,2013-01-16 03:28:00,
2013-01-16 04:33:00,34.9,34.1,29.62,NNW,342,3.6,4.9,97,0.00,,---,0.00,VWS V14.01,2013-01-16 03:33:00,
2013-01-16 04:38:00,34.9,34.1,29.62,NNW,340,3.1,5.4,97,0.00,,---,0.00,VWS V14.01,2013-01-16 03:38:00,
2013-01-16 04:43:00,34.9,34.1,29.62,NNW,330,0.0,3.6,97,0.00,,---,0.00,VWS V14.01,2013-01-16 03:43:00,
2013-01-16 04:48:00,35.1,34.3,29.62,NW,310,3.1,5.8,97,0.00,,---,0.00,VWS V14.01,2013-01-16 03:48:00,
2013-01-16 04:53:00,35.1,34.3,29.59,NNW,347,4.9,5.4,97,0.00,,---,0.00,VWS V14.01,2013-01-16 03:53:00,
2013-01-16 04:58:00,35.1,34.3,29.59,North,351,4.9,5.4,97,0.00,,---,0.00,VWS V14.01,2013-01-16 03:58:00,
2013-01-16 05:03:00,35.1,34.3,29.59,NNW,344,4.0,5.8,97,0.00,,---,0.00,VWS V14.01,2013-01-16 04:03:00,
2013-01-16 05:08:00,35.1,34.3,29.59,WNW,303,4.9,5.4,97,0.00,,---,0.00,VWS V14.01,2013-01-16 04:08:00,
2013-01-16 05:13:00,35.1,34.3,29.59,North,351,3.1,3.6,97,0.00,,---,0.00,VWS V14.01,2013-01-16 04:13:00,
2013-01-16 05:18:00,35.1,34.3,29.59,WNW,296,4.0,4.0,97,0.00,,---,0.00,VWS V14.01,2013-01-16 04:18:00,
2013-01-16 05:23:00,35.2,34.5,29.59,NW,307,3.6,4.5,97,0.00,,---,0.00,VWS V14.01,2013-01-16 04:23:00,
2013-01-16 05:28:00,35.2,34.5,29.59,NW,307,3.6,4.0,97,0.00,,---,0.00,VWS V14.01,2013-01-16 04:28:00,
2013-01-16 05:33:00,35.2,34.5,29.59,NW,307,0.0,3.6,97,0.00,,---,0.00,VWS V14.01,2013-01-16 04:33:00,
2013-01-16 05:38:00,35.2,34.5,29.59,WNW,296,3.1,4.5,97,0.00,,---,0.00,VWS V14.01,2013-01-16 04:38:00,
2013-01-16 05:43:00,35.4,34.7,29.59,WNW,291,4.5,4.9,97,0.00,,---,0.00,VWS V14.01,2013-01-16 04:43:00,
2013-01-16 05:48:00,35.6,34.8,29.59,WNW,293,4.5,4.9,97,0.00,,---,0.00,VWS V14.01,2013-01-16 04:48:00,
2013-01-16 05:53:00,35.6,34.8,29.59,WNW,286,5.4,5.4,97,0.00,,---,0.00,VWS V14.01,2013-01-16 04:53:00,
2013-01-16 05:58:00,35.8,35.0,29.59,West,280,5.4,6.3,97,0.00,,---,0.00,VWS V14.01,2013-01-16 04:58:00,
2013-01-16 06:00:00,36.0,35.2,29.59,WNW,283,5.4,5.4,97,0.00,,---,0.00,VWS V14.01,2013-01-16 05:00:00,
2013-01-16 06:01:00,36.0,35.2,29.59,WNW,285,4.5,5.8,97,0.00,,---,0.00,VWS V14.01,2013-01-16 05:01:00,
2013-01-16 06:06:00,36.1,35.4,29.59,West,281,5.8,5.8,97,0.00,,---,0.00,VWS V14.01,2013-01-16 05:06:00,
2013-01-16 06:11:00,35.8,35.0,29.59,West,280,5.4,6.3,97,0.00,,---,0.00,VWS V14.01,2013-01-16 05:11:00,
2013-01-16 06:16:00,35.8,35.0,29.59,WNW,283,3.6,5.4,97,0.00,,---,0.00,VWS V14.01,2013-01-16 05:16:00,
2013-01-16 06:21:00,35.8,35.0,29.59,NW,317,3.6,4.0,97,0.00,,---,0.00,VWS V14.01,2013-01-16 05:21:00,
2013-01-16 06:26:00,35.8,35.0,29.59,NNW,342,4.9,6.3,97,0.00,,---,0.00,VWS V14.01,2013-01-16 05:26:00,
2013-01-16 06:31:00,36.0,35.2,29.59,North,351,3.6,5.4,97,0.00,,---,0.00,VWS V14.01,2013-01-16 05:31:00,
2013-01-16 06:36:00,36.0,35.2,29.59,North,6,5.4,5.4,97,0.00,,---,0.00,VWS V14.01,2013-01-16 05:36:00,
2013-01-16 06:41:00,36.0,35.2,29.59,West,267,4.0,5.4,97,0.00,,---,0.00,VWS V14.01,2013-01-16 05:41:00,
2013-01-16 06:46:00,36.0,35.2,29.59,NW,305,3.6,4.9,97,0.00,,---,0.00,VWS V14.01,2013-01-16 05:46:00,
2013-01-16 06:51:00,36.1,35.4,29.59,NNW,334,4.5,4.9,97,0.00,,---,0.00,VWS V14.01,2013-01-16 05:51:00,
2013-01-16 06:56:00,36.1,35.4,29.59,NW,307,3.6,4.9,97,0.00,,---,0.00,VWS V14.01,2013-01-16 05:56:00,
2013-01-16 07:01:00,36.1,35.4,29.59,WNW,295,5.4,5.8,97,0.00,,---,0.00,VWS V14.01,2013-01-16 06:01:00,
2013-01-16 07:06:00,36.1,35.4,29.59,WNW,286,6.3,6.3,97,0.00,,---,0.00,VWS V14.01,2013-01-16 06:06:00,
2013-01-16 07:11:00,36.1,35.4,29.59,WNW,284,4.5,6.7,97,0.00,,---,0.00,VWS V14.01,2013-01-16 06:11:00,
2013-01-16 07:17:00,36.1,35.4,29.59,West,275,6.3,6.3,97,0.00,,---,0.00,VWS V14.01,2013-01-16 06:17:00,
2013-01-16 07:22:00,36.1,35.4,29.59,West,276,3.1,5.8,97,0.00,,---,0.00,VWS V14.01,2013-01-16 06:22:00,
2013-01-16 07:27:00,36.1,35.4,29.59,NW,322,4.9,4.9,97,0.00,,---,0.00,VWS V14.01,2013-01-16 06:27:00,
2013-01-16 07:32:00,36.1,35.4,29.59,WNW,291,4.5,5.4,97,0.00,,---,0.00,VWS V14.01,2013-01-16 06:32:00,
2013-01-16 07:37:00,36.7,35.9,29.59,West,274,5.4,5.8,97,0.00,,---,0.00,VWS V14.01,2013-01-16 06:37:00,
2013-01-16 07:42:00,37.0,36.3,29.59,West,262,4.0,5.4,97,0.00,,---,0.00,VWS V14.01,2013-01-16 06:42:00,
2013-01-16 07:47:00,37.6,36.8,29.59,WNW,285,5.4,6.3,97,0.00,,---,0.00,VWS V14.01,2013-01-16 06:47:00,
2013-01-16 07:52:00,37.6,36.8,29.59,West,277,4.9,5.8,97,0.00,,---,0.00,VWS V14.01,2013-01-16 06:52:00,
2013-01-16 07:57:00,37.8,37.0,29.59,West,275,4.9,5.4,97,0.00,,---,0.00,VWS V14.01,2013-01-16 06:57:00,
2013-01-16 08:02:00,38.1,37.3,29.59,West,276,5.8,5.8,97,0.00,,---,0.00,VWS V14.01,2013-01-16 07:02:00,
2013-01-16 08:07:00,37.9,37.2,29.59,West,281,0.0,4.9,97,0.00,,---,0.00,VWS V14.01,2013-01-16 07:07:00,
2013-01-16 08:12:00,37.6,36.8,29.59,West,273,4.9,4.9,97,0.00,,---,0.00,VWS V14.01,2013-01-16 07:12:00,
2013-01-16 08:17:00,37.4,36.6,29.59,West,278,4.9,4.9,97,0.00,,---,0.00,VWS V14.01,2013-01-16 07:17:00,
2013-01-16 08:22:00,37.2,36.5,29.59,WNW,283,5.8,5.8,97,0.00,,---,0.00,VWS V14.01,2013-01-16 07:22:00,
2013-01-16 08:27:00,37.2,36.5,29.59,WNW,283,5.4,5.4,97,0.00,,---,0.00,VWS V14.01,2013-01-16 07:27:00,
2013-01-16 08:32:00,37.0,36.3,29.59,West,281,4.0,4.5,97,0.00,,---,0.00,VWS V14.01,2013-01-16 07:32:00,
2013-01-16 08:37:00,37.2,36.5,29.62,West,277,4.0,4.9,97,0.00,,---,0.00,VWS V14.01,2013-01-16 07:37:00,
2013-01-16 08:42:00,37.2,36.5,29.62,WNW,294,0.0,2.7,97,0.00,,---,0.00,VWS V14.01,2013-01-16 07:42:00,
2013-01-16 08:47:00,37.2,36.5,29.62,SSE,147,2.7,3.1,97,0.00,,---,0.00,VWS V14.01,2013-01-16 07:47:00,
2013-01-16 08:52:00,37.0,36.3,29.59,West,269,5.4,5.4,97,0.00,,---,0.00,VWS V14.01,2013-01-16 07:52:00,
2013-01-16 08:57:00,37.0,36.3,29.59,West,273,3.6,5.4,97,0.00,,---,0.00,VWS V14.01,2013-01-16 07:57:00,
2013-01-16 09:02:00,37.0,36.3,29.59,WNW,297,4.9,6.7,97,0.00,,---,0.00,VWS V14.01,2013-01-16 08:02:00,
2013-01-16 09:07:00,37.0,36.3,29.62,West,271,6.3,6.7,97,0.00,,---,0.00,VWS V14.01,2013-01-16 08:07:00,
2013-01-16 09:12:00,37.2,36.5,29.62,WNW,287,5.8,6.3,97,0.00,,---,0.00,VWS V14.01,2013-01-16 08:12:00,
2013-01-16 09:17:00,37.6,36.8,29.62,South,177,3.6,6.9,97,0.00,,---,0.00,VWS V14.01,2013-01-16 08:17:00,
2013-01-16 09:22:00,38.5,37.7,29.62,West,279,5.4,5.4,97,0.00,,---,0.00,VWS V14.01,2013-01-16 08:22:00,
2013-01-16 09:27:00,39.0,38.2,29.62,West,267,6.7,6.7,97,0.00,,---,0.00,VWS V14.01,2013-01-16 08:27:00,
2013-01-16 09:32:00,39.4,38.6,29.62,West,276,6.9,8.3,97,0.00,,---,0.00,VWS V14.01,2013-01-16 08:32:00,
2013-01-16 09:37:00,39.2,38.4,29.62,SSW,208,4.0,5.4,97,0.00,,---,0.00,VWS V14.01,2013-01-16 08:37:00,
2013-01-16 09:42:00,39.4,38.6,29.62,WNW,290,8.7,10.5,97,0.00,,---,0.00,VWS V14.01,2013-01-16 08:42:00,
2013-01-16 09:47:00,39.6,38.8,29.62,NW,310,2.7,6.3,97,0.00,,---,0.00,VWS V14.01,2013-01-16 08:47:00,
2013-01-16 09:52:00,39.9,39.1,29.62,South,174,4.9,6.9,97,0.00,,---,0.00,VWS V14.01,2013-01-16 08:52:00,
2013-01-16 09:57:00,40.1,39.3,29.62,SE,143,4.0,6.7,97,0.00,,---,0.00,VWS V14.01,2013-01-16 08:57:00,
2013-01-16 10:02:00,40.3,39.5,29.62,SE,137,4.9,5.8,97,0.00,,---,0.00,VWS V14.01,2013-01-16 09:02:00,
2013-01-16 10:07:00,40.6,39.9,29.62,West,265,9.6,9.6,97,0.00,,---,0.00,VWS V14.01,2013-01-16 09:07:00,
2013-01-16 10:12:00,40.5,39.7,29.62,SE,124,5.4,6.7,97,0.00,,---,0.00,VWS V14.01,2013-01-16 09:12:00,
2013-01-16 10:17:00,39.6,38.8,29.62,NW,306,3.6,5.4,97,0.00,,---,0.00,VWS V14.01,2013-01-16 09:17:00,
2013-01-16 10:22:00,39.2,38.4,29.59,SSE,157,5.8,5.8,97,0.00,,---,0.00,VWS V14.01,2013-01-16 09:22:00,
2013-01-16 10:27:00,39.7,39.0,29.59,West,275,10.1,10.1,97,0.00,,---,0.00,VWS V14.01,2013-01-16 09:27:00,
2013-01-16 10:32:00,40.1,39.3,29.59,South,176,5.8,7.4,97,0.00,,---,0.00,VWS V14.01,2013-01-16 09:32:00,
2013-01-16 10:37:00,40.3,39.5,29.62,WNW,287,3.6,5.8,97,0.00,,---,0.00,VWS V14.01,2013-01-16 09:37:00,
2013-01-16 10:42:00,40.5,39.7,29.62,South,186,4.0,8.3,97,0.00,,---,0.00,VWS V14.01,2013-01-16 09:42:00,
2013-01-16 10:47:00,40.6,39.9,29.62,SSE,160,5.4,11.2,97,0.00,,---,0.00,VWS V14.01,2013-01-16 09:47:00,
2013-01-16 10:52:00,41.2,40.4,29.62,WNW,283,8.3,13.4,97,0.00,,---,0.00,VWS V14.01,2013-01-16 09:52:00,
2013-01-16 10:57:00,41.4,40.6,29.62,West,278,10.1,12.5,97,0.00,,---,0.00,VWS V14.01,2013-01-16 09:57:00,
2013-01-16 11:02:00,40.8,40.0,29.62,SSE,147,5.4,9.6,97,0.00,,---,0.00,VWS V14.01,2013-01-16 10:02:00,
2013-01-16 11:07:00,39.9,39.1,29.62,WNW,288,5.4,7.4,97,0.00,,---,0.00,VWS V14.01,2013-01-16 10:07:00,
2013-01-16 11:12:00,39.4,38.6,29.62,West,277,9.6,10.5,97,0.00,,---,0.00,VWS V14.01,2013-01-16 10:12:00,
2013-01-16 11:17:00,39.4,38.6,29.62,NNE,21,4.0,12.1,97,0.00,,---,0.00,VWS V14.01,2013-01-16 10:17:00,
2013-01-16 11:22:00,39.2,38.4,29.62,WNW,299,6.9,11.2,97,0.00,,---,0.00,VWS V14.01,2013-01-16 10:22:00,
2013-01-16 11:27:00,38.8,38.1,29.62,West,278,5.8,12.1,97,0.00,,---,0.00,VWS V14.01,2013-01-16 10:27:00,
2013-01-16 11:32:00,38.5,37.7,29.62,WNW,299,7.4,10.5,97,0.00,,---,0.00,VWS V14.01,2013-01-16 10:32:00,
2013-01-16 11:37:00,38.1,37.3,29.62,West,281,10.5,10.5,97,0.00,,---,0.00,VWS V14.01,2013-01-16 10:37:00,
2013-01-16 11:42:00,37.9,37.2,29.62,WNW,293,10.5,13.9,97,0.00,,---,0.00,VWS V14.01,2013-01-16 10:42:00,
2013-01-16 11:47:00,37.9,37.2,29.62,West,275,13.0,13.0,97,0.00,,---,0.00,VWS V14.01,2013-01-16 10:47:00,
2013-01-16 11:53:00,37.9,37.2,29.59,West,277,6.9,11.2,97,0.00,,---,0.00,VWS V14.01,2013-01-16 10:53:00,
2013-01-16 11:58:00,38.1,37.3,29.59,West,281,9.6,11.0,97,0.00,,---,0.00,VWS V14.01,2013-01-16 10:58:00,
2013-01-16 12:03:00,38.5,37.7,29.59,WNW,302,5.4,7.8,97,0.00,,---,0.00,VWS V14.01,2013-01-16 11:03:00,
2013-01-16 12:08:00,38.5,37.7,29.59,WNW,290,8.7,11.6,97,0.00,,---,0.00,VWS V14.01,2013-01-16 11:08:00,
2013-01-16 12:13:00,38.5,37.7,29.59,South,173,3.6,5.8,97,0.00,,---,0.00,VWS V14.01,2013-01-16 11:13:00,
2013-01-16 12:18:00,38.3,37.5,29.59,WNW,294,4.0,5.8,97,0.00,,---,0.00,VWS V14.01,2013-01-16 11:18:00,
2013-01-16 12:23:00,38.5,37.7,29.59,WNW,282,5.8,6.9,97,0.00,,---,0.00,VWS V14.01,2013-01-16 11:23:00,
2013-01-16 12:28:00,38.7,37.9,29.59,WNW,284,3.6,4.9,97,0.00,,---,0.00,VWS V14.01,2013-01-16 11:28:00,
2013-01-16 12:33:00,38.8,38.1,29.59,West,276,6.9,7.4,97,0.00,,---,0.00,VWS V14.01,2013-01-16 11:33:00,
2013-01-16 12:38:00,39.2,38.4,29.59,West,274,7.8,8.3,97,0.00,,---,0.00,VWS V14.01,2013-01-16 11:38:00,
2013-01-16 12:43:00,39.6,38.8,29.59,West,280,6.3,6.9,97,0.00,,---,0.00,VWS V14.01,2013-01-16 11:43:00,
2013-01-16 12:48:00,39.9,39.1,29.59,West,275,3.6,4.0,97,0.00,,---,0.00,VWS V14.01,2013-01-16 11:48:00,
2013-01-16 12:53:00,40.3,39.5,29.59,SSE,148,2.7,3.1,97,0.00,,---,0.00,VWS V14.01,2013-01-16 11:53:00,
2013-01-16 12:58:00,40.3,39.2,29.59,WNW,289,5.4,5.4,96,0.00,,---,0.00,VWS V14.01,2013-01-16 11:58:00,
2013-01-16 13:03:00,39.2,37.6,29.59,NNE,23,4.0,4.0,94,0.00,,---,0.00,VWS V14.01,2013-01-16 12:03:00,
2013-01-16 13:08:00,38.3,36.2,29.59,SE,125,4.0,4.5,92,0.00,,---,0.00,VWS V14.01,2013-01-16 12:08:00,
2013-01-16 13:13:00,37.8,35.7,29.59,SSE,147,2.7,6.7,92,0.00,,---,0.00,VWS V14.01,2013-01-16 12:13:00,
2013-01-16 13:18:00,37.4,35.0,29.59,SE,127,2.7,4.9,91,0.00,,---,0.00,VWS V14.01,2013-01-16 12:18:00,
2013-01-16 13:23:00,37.2,34.6,29.59,SE,128,2.7,3.1,90,0.00,,---,0.00,VWS V14.01,2013-01-16 12:23:00,
2013-01-16 13:28:00,37.4,35.0,29.59,SE,128,3.1,4.5,91,0.00,,---,0.00,VWS V14.01,2013-01-16 12:28:00,
2013-01-16 13:33:00,37.6,34.9,29.59,SE,128,3.1,4.5,90,0.00,,---,0.00,VWS V14.01,2013-01-16 12:33:00,
2013-01-16 13:38:00,37.8,35.1,29.56,SSE,167,4.9,5.8,90,0.00,,---,0.00,VWS V14.01,2013-01-16 12:38:00,
2013-01-16 13:43:00,37.9,35.3,29.56,SSE,167,3.1,4.9,90,0.00,,---,0.00,VWS V14.01,2013-01-16 12:43:00,
2013-01-16 13:48:00,38.1,35.5,29.56,SSE,167,0.0,4.0,90,0.00,,---,0.00,VWS V14.01,2013-01-16 12:48:00,
2013-01-16 13:53:00,38.3,35.3,29.59,SSE,167,0.0,0.0,89,0.00,,---,0.00,VWS V14.01,2013-01-16 12:53:00,
2013-01-16 13:58:00,38.5,35.5,29.59,SSE,167,0.0,0.0,89,0.00,,---,0.00,VWS V14.01,2013-01-16 12:58:00,
2013-01-16 14:03:00,38.7,35.7,29.59,WSW,240,0.0,3.6,89,0.00,,---,0.00,VWS V14.01,2013-01-16 13:03:00,
2013-01-16 14:08:00,38.8,35.9,29.59,WSW,240,0.0,0.0,89,0.00,,---,0.00,VWS V14.01,2013-01-16 13:08:00,
2013-01-16 14:13:00,39.0,35.8,29.59,WSW,240,0.0,2.7,88,0.00,,---,0.00,VWS V14.01,2013-01-16 13:13:00,
2013-01-16 14:18:00,38.8,35.6,29.59,WSW,240,0.0,4.0,88,0.00,,---,0.00,VWS V14.01,2013-01-16 13:18:00,
2013-01-16 14:23:00,38.8,35.6,29.59,WSW,240,0.0,0.0,88,0.00,,---,0.00,VWS V14.01,2013-01-16 13:23:00,
2013-01-16 14:28:00,38.7,35.1,29.59,WSW,240,2.7,2.7,87,0.00,,---,0.00,VWS V14.01,2013-01-16 13:28:00,
2013-01-16 14:33:00,38.3,34.8,29.59,SSE,150,4.0,4.9,87,0.00,,---,0.00,VWS V14.01,2013-01-16 13:33:00,
2013-01-16 14:38:00,37.9,34.4,29.56,SSE,150,3.6,4.5,87,0.00,,---,0.00,VWS V14.01,2013-01-16 13:38:00,
2013-01-16 14:43:00,37.8,34.2,29.56,SSE,150,0.0,0.0,87,0.00,,---,0.00,VWS V14.01,2013-01-16 13:43:00,
2013-01-16 14:48:00,37.6,34.1,29.56,SSE,150,0.0,2.7,87,0.00,,---,0.00,VWS V14.01,2013-01-16 13:48:00,
2013-01-16 14:53:00,37.2,33.4,29.56,SSE,150,0.0,4.5,86,0.00,,---,0.00,VWS V14.01,2013-01-16 13:53:00,
2013-01-16 14:58:00,37.0,33.2,29.56,NNW,330,7.8,7.8,86,0.00,,---,0.00,VWS V14.01,2013-01-16 13:58:00,
2013-01-16 15:03:00,36.3,32.0,29.56,NNW,327,5.4,7.4,84,0.00,,---,0.00,VWS V14.01,2013-01-16 14:03:00,
2013-01-16 15:08:00,36.0,31.6,29.56,NNW,331,5.8,6.3,84,0.00,,---,0.00,VWS V14.01,2013-01-16 14:08:00,
2013-01-16 15:13:00,35.8,31.7,29.56,SSE,160,2.7,4.0,85,0.00,,---,0.00,VWS V14.01,2013-01-16 14:13:00,
2013-01-16 15:18:00,35.8,31.7,29.56,NW,324,5.8,6.9,85,0.00,,---,0.00,VWS V14.01,2013-01-16 14:18:00,
2013-01-16 15:23:00,35.6,31.8,29.56,NW,323,3.6,5.4,86,0.00,,---,0.00,VWS V14.01,2013-01-16 14:23:00,
2013-01-16 15:28:00,35.4,31.7,29.56,NNW,327,4.0,4.0,86,0.00,,---,0.00,VWS V14.01,2013-01-16 14:28:00,
2013-01-16 15:33:00,35.4,31.7,29.56,West,264,3.1,3.1,86,0.00,,---,0.00,VWS V14.01,2013-01-16 14:33:00,
2013-01-16 15:38:00,35.4,31.7,29.56,West,264,3.1,3.1,86,0.00,,---,0.00,VWS V14.01,2013-01-16 14:38:00,
2013-01-16 15:43:00,35.4,31.7,29.56,SSW,209,2.7,3.1,86,0.00,,---,0.00,VWS V14.01,2013-01-16 14:43:00,
2013-01-16 15:48:00,35.1,31.3,29.56,WSW,255,3.1,3.6,86,0.00,,---,0.00,VWS V14.01,2013-01-16 14:48:00,
2013-01-16 15:53:00,35.1,31.3,29.56,NNW,346,6.3,6.3,86,0.00,,---,0.00,VWS V14.01,2013-01-16 14:53:00,
2013-01-16 15:58:00,34.7,31.2,29.56,NNW,343,5.4,5.4,87,0.00,,---,0.00,VWS V14.01,2013-01-16 14:58:00,
2013-01-16 16:03:00,34.3,30.9,29.56,North,351,4.5,6.3,87,0.00,,---,0.00,VWS V14.01,2013-01-16 15:03:00,
2013-01-16 16:08:00,34.2,30.7,29.56,NNW,336,4.9,5.8,87,0.00,,---,0.00,VWS V14.01,2013-01-16 15:08:00,
2013-01-16 16:13:00,33.8,30.6,29.56,NNW,340,5.8,5.8,88,0.00,,---,0.00,VWS V14.01,2013-01-16 15:13:00,
2013-01-16 16:18:00,33.6,30.5,29.56,North,3,5.4,6.3,88,0.00,,---,0.00,VWS V14.01,2013-01-16 15:18:00,
2013-01-16 16:23:00,33.3,30.1,29.56,NNW,341,3.1,4.9,88,0.00,,---,0.00,VWS V14.01,2013-01-16 15:23:00,
2013-01-16 16:28:00,33.3,30.1,29.56,North,351,4.9,5.8,88,0.00,,---,0.00,VWS V14.01,2013-01-16 15:28:00,
2013-01-16 16:33:00,33.1,30.2,29.56,NNW,341,4.9,6.7,89,0.00,,---,0.00,VWS V14.01,2013-01-16 15:33:00,
2013-01-16 16:38:00,33.1,30.2,29.56,NNW,335,5.4,6.3,89,0.00,,---,0.00,VWS V14.01,2013-01-16 15:38:00,
2013-01-16 16:43:00,32.9,30.0,29.56,NNW,336,4.5,6.7,89,0.00,,---,0.00,VWS V14.01,2013-01-16 15:43:00,
2013-01-16 16:48:00,32.9,30.3,29.56,NNW,337,4.0,6.3,90,0.00,,---,0.00,VWS V14.01,2013-01-16 15:48:00,
2013-01-16 16:53:00,32.9,30.6,29.56,NNW,328,0.0,4.0,91,0.00,,---,0.00,VWS V14.01,2013-01-16 15:53:00,
2013-01-16 16:58:00,32.9,30.6,29.56,NNW,331,3.6,4.5,91,0.00,,---,0.00,VWS V14.01,2013-01-16 15:58:00,
2013-01-16 17:03:00,32.9,30.6,29.56,NNW,332,2.7,4.0,91,0.00,,---,0.00,VWS V14.01,2013-01-16 16:03:00,
2013-01-16 17:08:00,32.7,30.4,29.56,East,83,3.1,3.6,91,0.00,,---,0.00,VWS V14.01,2013-01-16 16:08:00,
2013-01-16 17:13:00,32.7,30.4,29.56,NNW,347,4.5,6.3,91,0.00,,---,0.00,VWS V14.01,2013-01-16 16:13:00,
2013-01-16 17:18:00,32.7,30.7,29.56,NNW,337,3.1,3.1,92,0.00,,---,0.00,VWS V14.01,2013-01-16 16:18:00,
2013-01-16 17:23:00,32.5,30.5,29.56,SSE,151,3.1,3.1,92,0.00,,---,0.00,VWS V14.01,2013-01-16 16:23:00,
2013-01-16 17:28:00,32.5,30.5,29.56,SSE,151,4.5,5.4,92,0.00,,---,0.00,VWS V14.01,2013-01-16 16:28:00,
2013-01-16 17:33:00,32.4,30.3,29.56,SE,142,0.0,0.0,92,0.00,,---,0.00,VWS V14.01,2013-01-16 16:33:00,
2013-01-16 17:38:00,32.4,30.3,29.56,SE,142,3.1,3.1,92,0.00,,---,0.00,VWS V14.01,2013-01-16 16:38:00,
2013-01-16 17:43:00,32.4,30.3,29.56,SE,142,4.0,4.5,92,0.00,,---,0.00,VWS V14.01,2013-01-16 16:43:00,
2013-01-16 17:48:00,32.4,30.3,29.56,SE,142,0.0,2.7,92,0.00,,---,0.00,VWS V14.01,2013-01-16 16:48:00,
2013-01-16 17:53:00,32.2,30.1,29.56,SSE,155,3.1,4.9,92,0.00,,---,0.00,VWS V14.01,2013-01-16 16:53:00,
2013-01-16 17:58:00,32.0,29.9,29.56,SSE,155,0.0,5.4,92,0.00,,---,0.00,VWS V14.01,2013-01-16 16:58:00,
2013-01-16 18:03:00,31.8,29.8,29.56,NE,34,3.1,4.5,92,0.00,,---,0.00,VWS V14.01,2013-01-16 17:03:00,
2013-01-16 18:08:00,32.0,29.9,29.56,NW,324,4.5,4.9,92,0.00,,---,0.00,VWS V14.01,2013-01-16 17:08:00,
2013-01-16 18:13:00,32.0,29.9,29.56,SE,130,3.1,4.9,92,0.00,,---,0.00,VWS V14.01,2013-01-16 17:13:00,
2013-01-16 18:18:00,31.8,29.8,29.56,NNW,344,4.5,5.8,92,0.00,,---,0.00,VWS V14.01,2013-01-16 17:18:00,
2013-01-16 18:23:00,32.0,30.2,29.56,NNW,347,5.8,5.8,93,0.00,,---,0.00,VWS V14.01,2013-01-16 17:23:00,
2013-01-16 18:28:00,32.2,30.4,29.56,North,351,4.9,4.9,93,0.00,,---,0.00,VWS V14.01,2013-01-16 17:28:00,
2013-01-16 18:33:00,32.2,30.6,29.56,NW,309,4.0,4.0,94,0.00,,---,0.00,VWS V14.01,2013-01-16 17:33:00,
2013-01-16 18:38:00,32.5,31.0,29.56,NNW,340,3.6,4.9,94,0.00,,---,0.00,VWS V14.01,2013-01-16 17:38:00,
2013-01-16 18:43:00,32.5,31.3,29.56,WNW,299,8.3,8.3,95,0.00,,---,0.00,VWS V14.01,2013-01-16 17:43:00,
2013-01-16 18:48:00,32.7,31.5,29.56,WNW,289,4.0,4.9,95,0.00,,---,0.00,VWS V14.01,2013-01-16 17:48:00,
2013-01-16 18:53:00,32.7,31.5,29.56,WNW,302,3.6,5.4,95,0.00,,---,0.00,VWS V14.01,2013-01-16 17:53:00,
2013-01-16 18:58:00,32.5,31.3,29.56,NNW,341,4.0,5.8,95,0.00,,---,0.00,VWS V14.01,2013-01-16 17:58:00,
2013-01-16 19:03:00,32.5,31.5,29.56,NNW,338,2.7,5.4,96,0.00,,---,0.00,VWS V14.01,2013-01-16 18:03:00,
2013-01-16 19:08:00,32.5,31.5,29.56,NNW,333,2.7,4.0,96,0.00,,---,0.00,VWS V14.01,2013-01-16 18:08:00,
2013-01-16 19:13:00,32.7,31.7,29.56,WNW,287,2.7,4.9,96,0.00,,---,0.00,VWS V14.01,2013-01-16 18:13:00,
2013-01-16 19:18:00,32.7,31.7,29.56,WNW,282,6.3,6.3,96,0.00,,---,0.00,VWS V14.01,2013-01-16 18:18:00,
2013-01-16 19:23:00,32.7,31.7,29.59,WNW,283,3.1,3.1,96,0.00,,---,0.00,VWS V14.01,2013-01-16 18:23:00,
2013-01-16 19:28:00,32.7,31.7,29.59,NW,312,4.0,6.3,96,0.00,,---,0.00,VWS V14.01,2013-01-16 18:28:00,
2013-01-16 19:33:00,32.7,32.0,29.59,WNW,287,0.0,6.3,97,0.00,,---,0.00,VWS V14.01,2013-01-16 18:33:00,
2013-01-16 19:38:00,32.5,31.8,29.59,NW,321,4.0,4.5,97,0.00,,---,0.00,VWS V14.01,2013-01-16 18:38:00,
2013-01-16 19:43:00,32.5,31.8,29.59,NNW,335,4.5,6.9,97,0.00,,---,0.00,VWS V14.01,2013-01-16 18:43:00,
2013-01-16 19:48:00,32.5,31.8,29.59,WNW,299,5.4,5.4,97,0.00,,---,0.00,VWS V14.01,2013-01-16 18:48:00,
2013-01-16 19:53:00,32.5,31.8,29.59,WNW,285,4.9,5.8,97,0.00,,---,0.00,VWS V14.01,2013-01-16 18:53:00,
2013-01-16 19:58:00,32.9,32.1,29.59,WNW,285,4.9,6.3,97,0.00,,---,0.00,VWS V14.01,2013-01-16 18:58:00,
2013-01-16 20:03:00,33.1,32.3,29.59,WNW,282,5.4,5.8,97,0.00,,---,0.00,VWS V14.01,2013-01-16 19:03:00,
2013-01-16 20:08:00,33.1,32.3,29.56,WNW,288,5.4,5.8,97,0.00,,---,0.00,VWS V14.01,2013-01-16 19:08:00,
2013-01-16 20:13:00,33.1,32.3,29.56,WNW,294,0.0,5.8,97,0.00,,---,0.00,VWS V14.01,2013-01-16 19:13:00,
2013-01-16 20:18:00,33.1,32.3,29.56,WNW,283,3.6,5.8,97,0.00,,---,0.00,VWS V14.01,2013-01-16 19:18:00,
2013-01-16 20:23:00,33.1,32.3,29.59,NW,305,3.1,4.0,97,0.00,,---,0.00,VWS V14.01,2013-01-16 19:23:00,
2013-01-16 20:28:00,33.1,32.3,29.59,WNW,298,3.6,3.6,97,0.00,,---,0.00,VWS V14.01,2013-01-16 19:28:00,
2013-01-16 20:33:00,33.1,32.3,29.59,WNW,290,4.5,5.4,97,0.00,,---,0.00,VWS V14.01,2013-01-16 19:33:00,
2013-01-16 20:38:00,33.1,32.3,29.59,WNW,290,4.5,4.9,97,0.00,,---,0.00,VWS V14.01,2013-01-16 19:38:00,
2013-01-16 20:43:00,33.3,32.5,29.59,WNW,287,3.1,4.9,97,0.00,,---,0.00,VWS V14.01,2013-01-16 19:43:00,
2013-01-16 20:48:00,33.1,32.3,29.59,NNW,335,3.6,4.5,97,0.00,,---,0.00,VWS V14.01,2013-01-16 19:48:00,
2013-01-16 20:53:00,32.7,32.0,29.59,WNW,294,0.0,3.1,97,0.00,,---,0.00,VWS V14.01,2013-01-16 19:53:00,
2013-01-16 20:58:00,32.9,32.1,29.59,WNW,294,0.0,3.1,97,0.00,,---,0.00,VWS V14.01,2013-01-16 19:58:00,
2013-01-16 21:03:00,33.1,32.3,29.59,WNW,294,0.0,0.0,97,0.00,,---,0.00,VWS V14.01,2013-01-16 20:03:00,
2013-01-16 21:08:00,32.9,32.1,29.59,WNW,295,3.1,3.1,97,0.00,,---,0.00,VWS V14.01,2013-01-16 20:08:00,
2013-01-16 21:13:00,32.7,32.0,29.59,NNW,328,4.0,4.5,97,0.00,,---,0.00,VWS V14.01,2013-01-16 20:13:00,
2013-01-16 21:18:00,32.7,32.0,29.59,NW,307,5.8,5.8,97,0.00,,---,0.00,VWS V14.01,2013-01-16 20:18:00,
2013-01-16 21:23:00,32.7,32.0,29.59,NNW,340,3.6,5.8,97,0.00,,---,0.00,VWS V14.01,2013-01-16 20:23:00,
2013-01-16 21:28:00,32.7,32.0,29.59,North,356,4.5,5.4,97,0.00,,---,0.00,VWS V14.01,2013-01-16 20:28:00,
2013-01-16 21:33:00,32.7,32.0,29.59,NNW,334,4.0,7.4,97,0.00,,---,0.00,VWS V14.01,2013-01-16 20:33:00,
2013-01-16 21:38:00,32.7,32.0,29.56,North,351,5.4,6.3,97,0.00,,---,0.00,VWS V14.01,2013-01-16 20:38:00,
2013-01-16 21:43:00,32.7,32.0,29.56,NNW,345,4.5,4.5,97,0.00,,---,0.00,VWS V14.01,2013-01-16 20:43:00,
2013-01-16 21:48:00,32.5,31.8,29.56,NNW,342,4.5,5.8,97,0.00,,---,0.00,VWS V14.01,2013-01-16 20:48:00,
2013-01-16 21:53:00,32.5,31.8,29.56,NW,321,5.4,8.3,97,0.00,,---,0.00,VWS V14.01,2013-01-16 20:53:00,
2013-01-16 21:58:00,32.5,31.8,29.56,North,351,4.0,5.8,97,0.00,,---,0.00,VWS V14.01,2013-01-16 20:58:00,
2013-01-16 22:03:00,32.5,31.8,29.56,North,351,5.8,7.4,97,0.00,,---,0.00,VWS V14.01,2013-01-16 21:03:00,
2013-01-16 22:08:00,32.7,32.0,29.56,NW,308,3.6,4.0,97,0.00,,---,0.00,VWS V14.01,2013-01-16 21:08:00,
2013-01-16 22:13:00,32.7,32.0,29.56,NW,308,2.7,3.6,97,0.00,,---,0.00,VWS V14.01,2013-01-16 21:13:00,
2013-01-16 22:18:00,32.9,32.1,29.56,West,275,6.3,7.4,97,0.00,,---,0.00,VWS V14.01,2013-01-16 21:18:00,
2013-01-16 22:23:00,33.1,32.3,29.56,West,275,6.7,6.7,97,0.00,,---,0.00,VWS V14.01,2013-01-16 21:23:00,
2013-01-16 22:28:00,33.3,32.5,29.56,WNW,294,4.5,6.3,97,0.00,,---,0.00,VWS V14.01,2013-01-16 21:28:00,
2013-01-16 22:33:00,33.3,32.5,29.56,WNW,285,3.6,5.4,97,0.00,,---,0.00,VWS V14.01,2013-01-16 21:33:00,
2013-01-16 22:38:00,33.4,32.7,29.56,WNW,286,5.8,6.7,97,0.00,,---,0.00,VWS V14.01,2013-01-16 21:38:00,
2013-01-16 22:43:00,33.6,32.9,29.56,NW,321,4.5,4.5,97,0.00,,---,0.00,VWS V14.01,2013-01-16 21:43:00,
2013-01-16 22:48:00,33.4,32.7,29.56,NNW,335,4.9,6.3,97,0.00,,---,0.00,VWS V14.01,2013-01-16 21:48:00,
2013-01-16 22:53:00,33.6,32.9,29.56,NW,321,6.7,6.7,97,0.00,,---,0.00,VWS V14.01,2013-01-16 21:53:00,
2013-01-16 22:58:00,33.6,32.9,29.56,WNW,296,6.7,7.8,97,0.00,,---,0.00,VWS V14.01,2013-01-16 21:58:00,
2013-01-16 23:03:00,33.8,33.0,29.56,NNW,334,3.6,6.3,97,0.00,,---,0.00,VWS V14.01,2013-01-16 22:03:00,
2013-01-16 23:08:00,33.6,32.9,29.56,NNW,331,5.8,7.4,97,0.00,,---,0.00,VWS V14.01,2013-01-16 22:08:00,
2013-01-16 23:13:00,33.6,32.9,29.56,NW,319,5.8,6.3,97,0.00,,---,0.00,VWS V14.01,2013-01-16 22:13:00,
2013-01-16 23:18:00,33.6,32.9,29.56,NNW,346,3.1,5.4,97,0.00,,---,0.00,VWS V14.01,2013-01-16 22:18:00,
2013-01-16 23:23:00,33.8,33.0,29.56,WNW,297,5.4,5.4,97,0.00,,---,0.00,VWS V14.01,2013-01-16 22:23:00,
2013-01-16 23:28:00,33.8,33.0,29.56,WNW,301,6.3,6.3,97,0.00,,---,0.00,VWS V14.01,2013-01-16 22:28:00,
2013-01-16 23:33:00,33.8,33.0,29.56,WNW,299,5.4,6.9,97,0.00,,---,0.00,VWS V14.01,2013-01-16 22:33:00,
2013-01-16 23:38:00,33.8,33.0,29.56,West,277,0.0,7.8,97,0.00,,---,0.00,VWS V14.01,2013-01-16 22:38:00,
2013-01-16 23:43:00,33.8,33.0,29.56,NNW,343,4.5,5.8,97,0.00,,---,0.00,VWS V14.01,2013-01-16 22:43:00,
2013-01-16 23:48:00,33.8,33.0,29.56,NNW,333,0.0,0.0,97,0.00,,---,0.00,VWS V14.01,2013-01-16 22:48:00,
2013-01-16 23:53:00,33.8,33.0,29.56,North,356,4.5,5.8,97,0.00,,---,0.00,VWS V14.01,2013-01-16 22:53:00,
2013-01-16 23:58:00,33.8,33.0,29.56,North,351,4.0,5.8,97,0.00,,---,0.00,VWS V14.01,2013-01-16 22:58:00,